TimeCDT,TemperatureF,Dew PointF,Humidity,Sea Level PressureIn,VisibilityMPH,Wind Direction,Wind SpeedMPH,Gust SpeedMPH,PrecipitationIn,Events,Conditions,WindDirDegrees,DateUTC
12:54 AM,37.0,24.1,59,30.02,10.0,ENE,8.1,-,N/A,,Overcast,70,2013-03-23 05:54:00
1:54 AM,37.0,25.0,62,30.02,10.0,ENE,5.8,-,N/A,,Overcast,60,2013-03-23 06:54:00
2:54 AM,36.0,25.0,64,30.01,10.0,NE,5.8,-,N/A,,Overcast,50,2013-03-23 07:54:00
3:54 AM,36.0,25.0,64,29.99,10.0,ENE,8.1,-,N/A,,Overcast,60,2013-03-23 08:54:00
4:54 AM,36.0,26.1,67,29.99,10.0,NE,8.1,-,N/A,,Overcast,40,2013-03-23 09:54:00
5:54 AM,36.0,26.1,67,30.00,10.0,ENE,9.2,-,N/A,,Overcast,60,2013-03-23 10:54:00
6:54 AM,36.0,25.0,64,30.02,10.0,NE,6.9,-,N/A,,Overcast,50,2013-03-23 11:54:00
8:54 AM,37.0,24.1,59,30.02,10.0,ENE,11.5,-,N/A,,Overcast,70,2013-03-23 13:54:00
9:54 AM,39.0,24.1,55,30.02,10.0,ENE,12.7,-,N/A,,Overcast,70,2013-03-23 14:54:00
10:39 AM,39.9,24.1,53,30.00,10.0,ENE,13.8,-,N/A,,Overcast,60,2013-03-23 15:39:00
10:54 AM,41.0,24.1,51,30.02,10.0,ENE,12.7,-,N/A,,Overcast,70,2013-03-23 15:54:00
11:54 AM,44.1,26.1,49,30.02,10.0,East,10.4,-,N/A,,Overcast,80,2013-03-23 16:54:00
12:54 PM,46.0,26.1,46,30.00,10.0,NE,11.5,-,N/A,,Overcast,50,2013-03-23 17:54:00
1:54 PM,48.9,28.0,44,29.97,10.0,NE,11.5,-,N/A,,Overcast,50,2013-03-23 18:54:00
2:54 PM,48.0,28.0,46,29.92,10.0,ENE,12.7,20.7,N/A,,Overcast,60,2013-03-23 19:54:00
3:54 PM,50.0,28.9,44,29.88,10.0,NE,15.0,21.9,N/A,,Overcast,50,2013-03-23 20:54:00
4:54 PM,48.0,28.9,48,29.87,10.0,NE,13.8,-,N/A,,Overcast,50,2013-03-23 21:54:00
5:54 PM,46.9,30.0,52,29.86,10.0,ENE,16.1,-,0.00,,Overcast,60,2013-03-23 22:54:00
6:54 PM,46.0,32.0,58,29.86,10.0,ENE,11.5,-,0.00,Rain,Light Rain,60,2013-03-23 23:54:00
7:54 PM,44.1,34.0,68,29.87,10.0,NNE,10.4,-,0.00,Rain,Light Rain,20,2013-03-24 00:54:00
8:45 PM,43.0,34.0,71,29.86,7.0,NE,20.7,27.6,0.01,Rain,Light Rain,40,2013-03-24 01:45:00
8:54 PM,42.1,34.0,73,29.88,7.0,NE,17.3,-,0.02,Rain,Light Rain,40,2013-03-24 01:54:00
9:54 PM,39.9,36.0,86,29.88,8.0,NE,15.0,-,0.06,Rain,Light Rain,50,2013-03-24 02:54:00
10:40 PM,39.9,36.0,86,29.87,7.0,NE,13.8,-,0.02,Rain,Light Rain,40,2013-03-24 03:40:00
10:54 PM,39.9,36.0,86,29.90,6.0,NE,13.8,-,0.03,Rain,Light Rain,40,2013-03-24 03:54:00
11:41 PM,37.9,35.1,89,29.90,4.0,NE,15.0,24.2,0.10,Rain,Light Rain,40,2013-03-24 04:41:00
11:54 PM,37.9,35.1,89,29.89,5.0,NE,16.1,-,0.12,Rain,Light Rain,50,2013-03-24 04:54:00